Weather Roundup
Issued by NWS Springfield, MO

Home | Current Version | Previous Version | Text Only | Print | Product List | Glossary On
Versions: 1 2 3 4 5 6 7 8 9 10 11 12 13 14 15 16 17 18 19 20 21 22 23 24 25 26 27 28 29 30 31 32 33 34 35 36 37 38 39 40 41 42 43 44 45 46 47 48 49 50
000
NZUS99 KSGF 291307
HRRSGF

HOURLY WEATHER
NATIONAL WEATHER SERVICE SPRINGFIELD MO
800 AM CDT SAT APR 29 2017

......SGF CWA......

CITY           SKY/WX    TMP DP  RH WIND       PRES   REMARKS
SPRINGFIELD    TSTM      61  59  93 N12       29.71R FOG
JOPLIN         LGT RAIN  53  53 100 N10G22    29.72F
WEST PLAINS    RAIN      62  60  93 E14       29.81R FOG
ROLLA          LGT RAIN  58  32  37 E14G23    29.83R
OSAGE BEACH    TSTM      57  57 100 NE9       29.82R
BRANSON        LGT RAIN  63  63 100 E9G17     29.73F FOG

......SURROUNDING SGF CWA......

CITY           SKY/WX    TMP DP  RH WIND       PRES   REMARKS
CHANUTE        TSTM      51  49  92 NE17G24   29.75F
PARSONS        LGT RAIN  54  51  90 NE12G24   29.70F
COFFEYVILLE    CLOUDY    53  51  93 NE21G29   29.67F
EMPORIA        LGT RAIN  45  45 100 N15G23    29.87S
GROVE OK       TSTM      57  57 100 N8        29.63F
ROGERS AR      LGT RAIN  63  62  97 E15       29.62F
SILOAM SPRINGS CLOUDY    66  63  88 E8        29.59F THUNDER
HARRISON AR    LGT RAIN  66  66 100 SE8       29.72S FOG
NEAR YELLVILLE CLOUDY   N/A N/A N/A N8        29.72R

......KANSAS AND MISSOURI......

CITY           SKY/WX    TMP DP  RH WIND       PRES   REMARKS
KANSAS CTY INT RAIN      45  44  97 N17G26    29.89R FOG
DOWNTOWN KC    LGT RAIN  48  46  93 NE10      29.90R
COLUMBIA       CLOUDY    55  54  96 E16       29.85R
SEDALIA        LGT RAIN  52  52 100 E14       29.83F FOG
ST JOSEPH      CLOUDY    45  44  97 NE18G26   29.96F
ST LOUIS       CLOUDY    59  56  89 E12       29.88R THUNDER
SPIRIT OF STL  CLOUDY    59  58  96 E9        29.87R THUNDER
KIRKSVILLE     CLOUDY    47  32  56 NE21G31   29.91F HAZE
WICHITA        TSTM      44  43  96 NE26G37   29.78F FOG
TOPEKA         LGT RAIN  45  45 100 N14G21    29.91R
OLATHE         TSTM      46  46 100 NE12      29.87R FOG

......TENNESSEE......

CITY           SKY/WX    TMP DP  RH WIND       PRES   REMARKS
MEMPHIS        CLOUDY    75  69  81 S14       29.87S
NASHVILLE      PTSUNNY   75  68  78 S12       30.01R

......ARKANSAS.......

CITY           SKY/WX    TMP DP  RH WIND       PRES   REMARKS
FAYETTEVILLE   CLOUDY    74  72  93 S10G22    29.63F
FT SMITH       CLOUDY    78  70  76 SE12G22   29.62R THUNDER
LITTLE ROCK    CLOUDY    76  71  85 S13       29.77R

......OKLAHOMA.......

CITY           SKY/WX    TMP DP  RH WIND       PRES   REMARKS
TULSA          TSTM      56  55  97 N17G25    29.61F FOG
PONCA CITY     RAIN      47  44  90 N22G33    29.74F FOG
MCALESTER      CLOUDY    78  70  76 S10G23    29.57R HAZE
OKLAHOMA CITY  CLOUDY    48  46  93 MISG      29.67R

......IOWA............

CITY           SKY/WX    TMP DP  RH WIND       PRES   REMARKS
DES MOINES     CLOUDY    45  36  70 NE16      30.11R
QUAD CITIES    CLOUDY    47  42  83 E17G26    30.09R

......ILLINOIS........

CITY           SKY/WX    TMP DP  RH WIND       PRES   REMARKS
QUINCY         CLOUDY    51  49  92 NE25G39   29.85F FOG
CHICAGO        CLOUDY    45  30  55 NE17G26   30.15F




USA.gov is the U.S. government's official web portal to all federal, state and local government web resources and services.